Location: Bieg
(49.3499°N, 10.3835°E)
Time: 12:03:35
(UTC+00:00)

Geosat - Pass Details

Date: 23 May 2024
Orbit: 760 x 763 km, 108.1° (Epoch: 20 June)

Event Time Altitude Azimuth Distance (km) Brightness Sun altitude
Rises 02:24:14 0° 151° (SSE) 3,211 7.0 -8.4°
Reaches altitude 10° 02:26:30 10° 152° (SSE) 2,290 6.3 -8.1°
Maximum altitude 02:31:30 83° 240° (WSW) 775 4.0 -7.6°
Drops below altitude 10° 02:36:33 10° 329° (NNW) 2,308 6.7 -7.0°
Sets 02:38:50 0° 330° (NNW) 3,238 7.4 -6.7°
